Location: Azul
(36.7830°S, 59.8500°W)
Time: 20:07:07
(UTC-03:00)

ISS - Pass Details

Date: 14 February 2020
Orbit: 415 x 422 km, 51.6° (Epoch: 27 February)

Event Time Altitude Azimuth Distance (km) Brightness Sun altitude
Exits shadow 03:47:31 19° 156° (SSE) 1,080 -1.0 -28.3°
Maximum altitude 03:47:40 19° 152° (SSE) 1,078 -1.0 -28.3°
Drops below altitude 10° 03:50:12 10° 104° (ESE) 1,513 -0.2 -27.9°
Sets 03:52:43 0° 85° (E) 2,373 0.6 -27.6°
